Location: Unspecified
(42.3650°N, 71.1030°W)
Time: 10:10:08
(UTC+00:00)

S-56A Canister/Altair - All Passes

Search period start: 21 June 2024 00:00
Search period end: 01 July 2024 00:00
Orbit: 637 x 2489 km, 38.9° (Epoch: 20 June)

Date Brightness Start Highest point End Pass type
(mag) Time Alt. Az. Time Alt. Az. Time Alt. Az.
21 Jun - 00:18:51 10° S 00:25:33 27° SE 00:34:35 10° E daylight
21 Jun - 02:19:55 10° SW 02:29:11 62° SSE 02:42:33 10° E visible
21 Jun - 04:23:28 10° W 04:34:51 77° S 04:49:48 10° E visible
21 Jun - 06:28:11 10° W 06:41:09 62° SSW 06:55:50 10° SE visible
21 Jun - 08:34:24 10° W 08:46:29 33° SW 08:58:34 10° SSE visible
21 Jun - 23:46:11 10° S 23:51:59 22° SE 23:59:33 10° E daylight
22 Jun - 01:46:34 10° SW 01:55:10 57° SSE 02:07:48 10° E visible
22 Jun - 03:49:48 10° W 04:00:29 77° S 04:15:09 10° E visible
22 Jun - 05:54:14 10° W 06:06:42 65° SSW 06:21:33 10° ESE visible
22 Jun - 07:59:59 10° W 08:12:14 37° SW 08:24:58 10° SSE visible
22 Jun - 10:12:39 10° WSW 10:16:07 11° SW 10:19:33 10° SW daylight
22 Jun - 23:13:46 10° S 23:18:30 18° SE 23:24:21 10° E daylight
23 Jun - 01:13:18 10° SW 01:21:16 52° SSE 01:33:02 10° E visible
23 Jun - 03:16:12 10° WSW 03:26:13 76° S 03:40:26 10° E visible
23 Jun - 05:20:22 10° W 05:32:16 67° SSW 05:47:09 10° ESE visible
23 Jun - 07:25:42 10° W 07:37:56 40° SW 07:51:12 10° SSE visible
23 Jun - 09:35:47 10° WSW 09:42:09 14° SW 09:48:30 10° SSW daylight
23 Jun - 22:41:51 10° SSE 22:45:04 13° SE 22:48:46 10° ESE daylight
24 Jun - 00:40:07 10° SW 00:47:28 46° SSE 00:58:18 10° E visible
24 Jun - 02:42:41 10° WSW 02:52:02 74° S 03:05:42 10° E visible
24 Jun - 04:46:36 10° W 04:57:53 69° SSW 05:12:39 10° ESE visible
24 Jun - 06:51:33 10° W 07:03:38 44° SSW 07:17:16 10° SSE visible
24 Jun - 09:00:09 10° W 09:08:07 17° SW 09:16:12 10° SSW daylight
25 Jun - 00:07:02 10° SSW 00:13:46 40° SE 00:23:34 10° E daylight
25 Jun - 02:09:13 10° WSW 02:17:56 72° S 02:30:57 10° E visible
25 Jun - 04:12:54 10° W 04:23:33 71° SSW 04:38:05 10° ESE visible
25 Jun - 06:17:32 10° W 06:29:18 47° SSW 06:43:13 10° SE visible
25 Jun - 08:25:03 10° W 08:34:02 20° SW 08:43:23 10° S visible
25 Jun - 23:34:03 10° SSW 23:40:10 34° SE 23:48:51 10° E daylight
26 Jun - 01:35:51 10° WSW 01:43:56 68° SSE 01:56:13 10° E visible
26 Jun - 03:39:17 10° W 03:49:17 73° S 04:03:26 10° ESE visible
26 Jun - 05:43:37 10° W 05:54:59 50° SSW 06:09:02 10° SE visible
26 Jun - 07:50:19 10° W 07:59:55 23° SW 08:10:13 10° S visible
26 Jun - 23:01:11 10° SSW 23:06:38 28° SE 23:14:09 10° E daylight
27 Jun - 01:02:32 10° WSW 01:10:02 64° SSE 01:21:31 10° E visible
27 Jun - 03:05:44 10° W 03:15:05 73° S 03:28:45 10° ESE visible
27 Jun - 05:09:48 10° W 05:20:41 53° SSW 05:34:45 10° SE visible
27 Jun - 07:15:50 10° W 07:25:45 26° SW 07:36:48 10° S visible
27 Jun - 22:28:26 10° S 22:33:12 23° SE 22:39:26 10° E daylight
28 Jun - 00:29:15 10° WSW 00:36:13 60° SSE 00:46:51 10° E daylight
28 Jun - 02:32:14 10° W 02:40:59 74° S 02:54:02 10° ESE visible
28 Jun - 04:36:04 10° W 04:46:26 56° SSW 05:00:21 10° SE visible
28 Jun - 06:41:32 10° W 06:51:35 28° SW 07:03:10 10° SSE visible
28 Jun - 21:55:54 10° S 21:59:48 18° SE 22:04:37 10° E daylight
28 Jun - 23:56:03 10° SW 00:02:30 54° SSE 00:12:14 10° E daylight
29 Jun - 01:58:49 10° W 02:06:57 74° S 02:19:19 10° E visible
29 Jun - 04:02:26 10° W 04:12:13 58° SSW 04:25:52 10° SE visible
29 Jun - 06:07:25 10° W 06:17:24 31° SW 06:29:22 10° SSE visible
29 Jun - 21:23:43 10° SSE 21:26:27 13° SE 21:29:35 10° ESE daylight
29 Jun - 23:22:55 10° SW 23:28:51 48° SSE 23:37:40 10° E daylight
30 Jun - 01:25:26 10° W 01:32:59 73° S 01:44:38 10° E visible
30 Jun - 03:28:51 10° W 03:38:04 61° SSW 03:51:20 10° ESE visible
30 Jun - 05:33:27 10° W 05:43:13 34° SW 05:55:25 10° SSE visible
30 Jun - 07:45:19 10° WSW 07:47:40 11° SW 07:50:04 10° SW visible
30 Jun - 22:49:50 10° SW 22:55:17 42° SSE 23:03:11 10° E daylight
